Weather Roundup
Issued by NWS

Home | Current Version | Previous Version | Graphics & Text | Print | Product List | Glossary Off
Versions: 1 2 3 4 5 6 7 8 9 10 11 12 13 14 15 16 17 18 19 20 21 22 23 24 25 26 27 28 29 30 31 32 33 34 35 36 37 38 39 40 41 42 43 44 45 46 47 48 49 50

000
NZUS93 KARX 221659
HRRWXR

CURRENT HOURLY OBSERVATIONS ACROSS
MUCH OF THE UPPER MISSISSIPPI VALLEY
NATIONAL WEATHER SERVICE LA CROSSE WI
1200 PM CDT FRI MAY 22 2015


...SOUTHEAST MINNESOTA...


CITY           SKY/WX    TMP DP  RH WIND       PRES   REMARKS
ROCHESTER      SUNNY     68  36  30 N7        30.23F
ROCHESTER/MAYO FAIR      68  31  25 NE7       30.22S
WINONA         SUNNY     70  36  28 NE3       30.22S
AUSTIN         SUNNY     68  39  34 CALM      30.22R
ALBERT LEA     MOSUNNY   70  30  23 CALM      30.22R
DODGE CENTER   SUNNY     68  30  24 E8        30.22S
PRESTON        SUNNY     66  32  27 CALM      30.22S
OWATONNA       SUNNY     70  30  23 NE3       30.22S
FARIBAULT      SUNNY     70  34  26 NW8       30.22F
$$

...ELSEWHERE IN MINNESOTA...


CITY           SKY/WX    TMP DP  RH WIND       PRES   REMARKS
MINNEAPOLIS    SUNNY     68  33  27 SE5       30.22S
INTNL FALLS    SUNNY     65  29  25 VRB6      30.17F
DULUTH         SUNNY     66  31  27 NW12G18   30.20F
RED WING       SUNNY     70  30  23 NE7       30.21S
REDWOOD FALLS  SUNNY     71  33  24 VRB3      30.21S
MANKATO        SUNNY     68  34  28 CALM      30.23R
WORTHINGTON    SUNNY     70  36  28 CALM      30.22S
FAIRMONT       SUNNY     70  30  23 NE8       30.22S
$$

...SOUTHWEST WISCONSIN...


CITY           SKY/WX    TMP DP  RH WIND       PRES   REMARKS
LA CROSSE      SUNNY     69  39  33 CALM      30.21S
PRAIRIE DU CHI SUNNY     68  42  38 CALM      30.21F
BOSCOBEL       SUNNY     71  39  31 NW5       30.21F
LONE ROCK      NOT AVBL
PLATTEVILLE    SUNNY     67  39  35 S5        30.22S
FORT MC COY    SUNNY     67  35  30 W9        30.23R
VIROQUA        FAIR      66  35  32 CALM      30.22S
WIS DELLS      SUNNY     64  31  29 CALM      30.23R
$$

...ELSEWHERE IN WISCONSIN...


CITY           SKY/WX    TMP DP  RH WIND       PRES   REMARKS
MILWAUKEE      SUNNY     54  30  40 E7        30.27R
MADISON        MOSUNNY   64  34  32 SE3       30.23R
GREEN BAY      SUNNY     61  29  29 VRB6      30.23S
EAU CLAIRE     SUNNY     66  32  28 VRB5      30.23R
BLACK RVR FLS  FAIR      68  32  26 SW7       30.21R
MEDFORD        SUNNY     61  33  35 N5        30.21S
WAUSAU         SUNNY     63  31  30 VRB7      30.20S
WIS RAPIDS     SUNNY     64  24  21 CALM      30.24R
MARSHFIELD     SUNNY     65  33  30 VRB3      30.23R
RICE LAKE      SUNNY     64  28  24 N5        30.23S
$$

...NORTHEAST IOWA...


CITY           SKY/WX    TMP DP  RH WIND       PRES   REMARKS
DECORAH        SUNNY     68  36  30 VRB5      30.21S
MASON CITY     SUNNY     71  36  27 VRB6      30.22F
CHARLES CITY   SUNNY     70  32  24 NW8       30.22S
OELWEIN        SUNNY     70  34  26 N10       30.21S
$$

...ELSEWHERE IN IOWA...


CITY           SKY/WX    TMP DP  RH WIND       PRES   REMARKS
DES MOINES     CLOUDY    74  41  30 S6        30.23R
IOWA CITY      SUNNY     72  37  28 VRB5      30.23R
FORT DODGE     SUNNY     70  43  37 W6        30.24R
$$

...NORTHERN ILLINOIS...


CITY           SKY/WX    TMP DP  RH WIND       PRES   REMARKS
CHICAGO-OHARE  MOSUNNY   62  30  29 E9        30.23R
CHICAGO-MIDWAY MOSUNNY   65  37  35 E9        30.24R
MOLINE         SUNNY     75  41  29 W6        30.20S
ROCKFORD       MOSUNNY   69  39  33 SE5       30.24S
PEORIA         SUNNY     76  40  27 NW5       30.21R
$$

NOTE: "FAIR" INDICATES FEW OR NO CLOUDS BELOW 12,000 FEET WITH NO
SIGNIFICANT WEATHER AND/OR OBSTRUCTIONS TO VISIBILITY. WIND
SPEEDS ARE IN MILES-PER-HOUR.



USA.gov is the U.S. government's official web portal to all federal, state and local government web resources and services.